| time (UTC) | temp C | wind direction | speed KPH | gust KPH | rain 1hr cm | rain 24hr cm | rain mn cm | humidity % | barometer mb |
| 20260906123121 | 21 | 47 | 6.4 | 9.7 | 0.00 | 0.00 | 0.00 | 99 | 1018.5 |
| 20260906122121 | 21 | 56 | 4.8 | 8.0 | 0.00 | 0.00 | 0.00 | 99 | 1018.6 |
| 20260906121121 | 21 | 16 | 4.8 | 8.0 | 0.00 | 0.00 | 0.00 | 99 | 1018.3 |
| 20260906120121 | 21 | 50 | 4.8 | 8.0 | 0.00 | 0.00 | 0.00 | 99 | 1018.1 |
| 20260906115122 | 21 | 14 | 4.8 | 6.4 | 0.00 | 0.00 | 0.00 | 99 | 1018.1 |
| 20260906114122 | 21 | 11 | 4.8 | 9.7 | 0.00 | 0.00 | 0.00 | 99 | 1017.9 |
| 20260906113122 | 21 | 55 | 6.4 | 9.7 | 0.00 | 0.00 | 0.00 | 99 | 1017.5 |
| 20260906112121 | 21 | 45 | 4.8 | 8.0 | 0.00 | 0.00 | 0.00 | 99 | 1017.4 |
| 20260906111121 | 21 | 14 | 4.8 | 9.7 | 0.00 | 0.00 | 0.00 | 99 | 1017.4 |
| 20260906110121 | 21 | 359 | 4.8 | 6.4 | 0.00 | 0.00 | 0.00 | 99 | 1017.4 |
| 20260906105142 | 21 | 4 | 4.8 | 8.0 | 0.00 | 0.00 | 0.00 | 99 | 1017.2 |
| 20260906104121 | 21 | 357 | 4.8 | 8.0 | 0.00 | 0.00 | 0.00 | 99 | 1017.2 |
| 20260906103122 | 21 | 355 | 4.8 | 8.0 | 0.00 | 0.00 | 0.00 | 99 | 1017.1 |
| 20260906102122 | 21 | 1 | 4.8 | 6.4 | 0.00 | 0.00 | 0.00 | 99 | 1017.0 |
| 20260906101142 | 21 | 9 | 4.8 | 9.7 | 0.00 | 0.00 | 0.00 | 99 | 1016.9 |
| 20260906100121 | 21 | 333 | 3.2 | 6.4 | 0.00 | 0.00 | 0.00 | 99 | 1016.9 |
| 20260906095121 | 21 | 342 | 4.8 | 6.4 | 0.00 | 0.00 | 0.00 | 99 | 1016.9 |
| 20260906094121 | 21 | 338 | 4.8 | 6.4 | 0.00 | 0.00 | 0.00 | 99 | 1017.0 |
| 20260906093121 | 21 | 6 | 4.8 | 6.4 | 0.00 | 0.00 | 0.00 | 99 | 1016.9 |
| 20260906092121 | 21 | 312 | 4.8 | 6.4 | 0.00 | 0.00 | 0.00 | 99 | 1016.9 |
| 20260906091122 | 21 | 331 | 3.2 | 4.8 | 0.00 | 0.00 | 0.00 | 99 | 1016.8 |
| 20260906090122 | 21 | 325 | 3.2 | 6.4 | 0.00 | 0.00 | 0.00 | 99 | 1016.8 |
| 20260906085121 | 21 | 360 | 3.2 | 6.4 | 0.00 | 0.00 | 0.00 | 99 | 1016.8 |
| 20260906084121 | 21 | 348 | 3.2 | 6.4 | 0.00 | 0.00 | 0.00 | 99 | 1017.1 |
| 20260906083121 | 21 | 343 | 4.8 | 8.0 | 0.00 | 0.00 | 0.00 | 99 | 1017.1 |
| 20260906082142 | 21 | 350 | 4.8 | 6.4 | 0.00 | 0.00 | 0.00 | 99 | 1017.3 |
| 20260906081142 | 21 | 359 | 4.8 | 6.4 | 0.00 | 0.00 | 0.00 | 99 | 1017.1 |
| 20260906080142 | 21 | 357 | 4.8 | 6.4 | 0.00 | 0.00 | 0.00 | 99 | 1017.0 |
| 20260906075121 | 21 | 357 | 4.8 | 6.4 | 0.00 | 0.00 | 0.00 | 99 | 1017.0 |
| 20260906074121 | 21 | 318 | 3.2 | 6.4 | 0.00 | 0.00 | 0.00 | 99 | 1017.2 |
| 20260906073142 | 21 | 324 | 1.6 | 4.8 | 0.00 | 0.00 | 0.00 | 99 | 1017.3 |
| 20260906072122 | 21 | 293 | 0.0 | 0.0 | 0.00 | 0.00 | 0.00 | 99 | 1017.4 |
| 20260906071121 | 20 | 293 | 0.0 | 0.0 | 0.00 | 0.00 | 0.00 | 99 | 1017.3 |
| 20260906070121 | 20 | 315 | 0.0 | 0.0 | 0.00 | 0.00 | 0.00 | 99 | 1017.2 |
| 20260906065121 | 20 | 343 | 0.0 | 4.8 | 0.00 | 0.00 | 0.00 | 99 | 1017.2 |
| 20260906064121 | 20 | 353 | 3.2 | 4.8 | 0.00 | 0.00 | 0.00 | 99 | 1017.2 |
| 20260906063122 | 20 | 5 | 1.6 | 4.8 | 0.00 | 0.00 | 0.00 | 99 | 1017.3 |
| 20260906062142 | 20 | 56 | 3.2 | 6.4 | 0.00 | 0.00 | 0.00 | 99 | 1017.6 |
| 20260906061121 | 20 | 43 | 3.2 | 6.4 | 0.00 | 0.00 | 0.00 | 99 | 1017.4 |
| 20260906060121 | 20 | 39 | 3.2 | 8.0 | 0.00 | 0.00 | 0.00 | 99 | 1017.5 |
| 20260906055121 | 20 | 55 | 4.8 | 9.7 | 0.00 | 0.00 | 0.00 | 99 | 1017.4 |
| 20260906054122 | 21 | 342 | 3.2 | 4.8 | 0.00 | 0.00 | 0.00 | 99 | 1017.4 |
| 20260906053121 | 21 | 339 | 3.2 | 6.4 | 0.00 | 0.00 | 0.00 | 99 | 1017.5 |
| 20260906052121 | 21 | 328 | 4.8 | 6.4 | 0.00 | 0.00 | 0.00 | 99 | 1017.4 |
| 20260906051121 | 21 | 346 | 4.8 | 8.0 | 0.00 | 0.00 | 0.00 | 99 | 1017.2 |
| 20260906050142 | 21 | 348 | 4.8 | 8.0 | 0.00 | 0.00 | 0.00 | 99 | 1016.9 |
| 20260906045142 | 21 | 355 | 4.8 | 8.0 | 0.00 | 0.00 | 0.00 | 99 | 1016.9 |
| 20260906044121 | 21 | 46 | 4.8 | 9.7 | 0.00 | 0.00 | 0.00 | 99 | 1016.7 |
| 20260906043142 | 21 | 45 | 3.2 | 6.4 | 0.00 | 0.00 | 0.00 | 99 | 1016.5 |
| 20260906042121 | 21 | 55 | 3.2 | 6.4 | 0.00 | 0.00 | 0.00 | 99 | 1016.4 |
| 20260906041142 | 21 | 96 | 3.2 | 6.4 | 0.00 | 0.00 | 0.00 | 99 | 1016.3 |
| 20260906040121 | 21 | 53 | 4.8 | 8.0 | 0.00 | 0.00 | 0.00 | 99 | 1016.2 |
| 20260906035143 | 21 | 40 | 3.2 | 6.4 | 0.00 | 0.00 | 0.00 | 99 | 1016.2 |
| 20260906034121 | 21 | 40 | 4.8 | 8.0 | 0.00 | 0.00 | 0.00 | 99 | 1016.2 |
| 20260906033121 | 21 | 56 | 4.8 | 6.4 | 0.00 | 0.00 | 0.00 | 99 | 1016.0 |
| 20260906032121 | 21 | 36 | 4.8 | 8.0 | 0.00 | 0.00 | 0.00 | 99 | 1015.9 |
| 20260906031122 | 21 | 68 | 3.2 | 4.8 | 0.00 | 0.00 | 0.00 | 99 | 1016.0 |
| 20260906030122 | 21 | 270 | 0.0 | 0.0 | 0.00 | 0.00 | 0.00 | 99 | 1016.0 |
| 20260906025121 | 22 | 36 | 1.6 | 3.2 | 0.00 | 0.00 | 0.00 | 99 | 1016.0 |
| 20260906024121 | 22 | 16 | 0.0 | 3.2 | 0.00 | 0.00 | 0.00 | 99 | 1015.9 |
| 20260906023122 | 22 | 44 | 1.6 | 3.2 | 0.00 | 0.00 | 0.00 | 99 | 1015.8 |
| 20260906022121 | 22 | 50 | 3.2 | 8.0 | 0.00 | 0.00 | 0.00 | 99 | 1015.6 |
| 20260906021121 | 23 | 10 | 3.2 | 4.8 | 0.00 | 0.00 | 0.00 | 99 | 1015.7 |
| 20260906020121 | 23 | 37 | 0.0 | 3.2 | 0.00 | 0.00 | 0.00 | 98 | 1015.7 |
| 20260906015121 | 23 | 8 | 1.6 | 4.8 | 0.00 | 0.00 | 0.00 | 98 | 1015.6 |
| 20260906014122 | 23 | 339 | 3.2 | 4.8 | 0.00 | 0.00 | 0.00 | 97 | 1015.6 |
| 20260906013121 | 24 | 3 | 3.2 | 4.8 | 0.00 | 0.00 | 0.00 | 96 | 1015.2 |
| 20260906012122 | 24 | 337 | 4.8 | 6.4 | 0.00 | 0.00 | 0.00 | 95 | 1015.2 |
| 20260906011142 | 25 | 346 | 6.4 | 8.0 | 0.00 | 0.00 | 0.00 | 94 | 1015.1 |
| 20260906010122 | 25 | 346 | 6.4 | 9.7 | 0.00 | 0.00 | 0.00 | 93 | 1015.1 |
| 20260906005122 | 25 | 344 | 6.4 | 9.7 | 0.00 | 0.00 | 0.00 | 91 | 1015.1 |
| 20260906004121 | 26 | 310 | 8.0 | 12.9 | 0.00 | 0.00 | 0.00 | 90 | 1015.0 |
| 20260906003121 | 26 | 339 | 6.4 | 9.7 | 0.00 | 0.00 | 0.00 | 90 | 1014.8 |
| 20260906002121 | 26 | 328 | 6.4 | 9.7 | 0.00 | 0.00 | 0.00 | 89 | 1014.7 |
| 20260906001122 | 27 | 349 | 6.4 | 11.3 | 0.00 | 0.00 | 0.00 | 87 | 1014.7 |
| 20260906000143 | 27 | 332 | 4.8 | 6.4 | 0.00 | 0.00 | 0.00 | 86 | 1014.6 |
| 20260905235122 | 28 | 327 | 4.8 | 8.0 | 0.00 | 0.00 | 0.00 | 84 | 1014.6 |
| 20260905234121 | 28 | 342 | 4.8 | 8.0 | 0.00 | 0.00 | 0.00 | 84 | 1014.6 |
| 20260905233121 | 28 | 350 | 6.4 | 11.3 | 0.00 | 0.00 | 0.00 | 83 | 1014.5 |
| 20260905232121 | 29 | 322 | 6.4 | 11.3 | 0.00 | 0.00 | 0.00 | 84 | 1014.2 |
| 20260905231142 | 30 | 3 | 6.4 | 9.7 | 0.00 | 0.00 | 0.00 | 83 | 1014.1 |
| 20260905230121 | 30 | 12 | 6.4 | 9.7 | 0.00 | 0.00 | 0.00 | 81 | 1014.3 |
| 20260905225121 | 30 | 338 | 8.0 | 12.9 | 0.00 | 0.00 | 0.00 | 81 | 1014.3 |
| 20260905224121 | 31 | 342 | 6.4 | 9.7 | 0.00 | 0.00 | 0.00 | 80 | 1014.2 |
| 20260905223121 | 31 | 328 | 6.4 | 11.3 | 0.00 | 0.00 | 0.00 | 77 | 1014.2 |
| 20260905222121 | 32 | 329 | 6.4 | 9.7 | 0.00 | 0.00 | 0.00 | 76 | 1014.2 |
| 20260905221122 | 32 | 346 | 6.4 | 9.7 | 0.00 | 0.00 | 0.00 | 74 | 1014.0 |
| 20260905220121 | 32 | 326 | 6.4 | 11.3 | 0.00 | 0.00 | 0.00 | 75 | 1013.9 |
| 20260905215143 | 32 | 322 | 6.4 | 11.3 | 0.00 | 0.00 | 0.00 | 72 | 1014.0 |
| 20260905214121 | 32 | 341 | 6.4 | 9.7 | 0.00 | 0.00 | 0.00 | 72 | 1014.0 |
| 20260905213122 | 33 | 325 | 6.4 | 9.7 | 0.00 | 0.00 | 0.00 | 72 | 1013.9 |
| 20260905212122 | 33 | 339 | 6.4 | 9.7 | 0.00 | 0.00 | 0.00 | 70 | 1013.9 |
| 20260905211121 | 32 | 358 | 4.8 | 9.7 | 0.00 | 0.00 | 0.00 | 74 | 1013.9 |
| 20260905210122 | 33 | 356 | 4.8 | 8.0 | 0.00 | 0.00 | 0.00 | 74 | 1014.0 |
| 20260905205122 | 32 | 332 | 6.4 | 9.7 | 0.00 | 0.00 | 0.00 | 76 | 1014.0 |
| 20260905204121 | 33 | 336 | 6.4 | 9.7 | 0.00 | 0.00 | 0.00 | 72 | 1014.1 |
| 20260905203121 | 32 | 352 | 6.4 | 11.3 | 0.00 | 0.00 | 0.00 | 76 | 1014.3 |
| 20260905202142 | 32 | 329 | 4.8 | 11.3 | 0.00 | 0.00 | 0.00 | 73 | 1014.1 |
| 20260905201121 | 33 | 315 | 4.8 | 9.7 | 0.00 | 0.00 | 0.00 | 72 | 1014.3 |
| 20260905200122 | 32 | 347 | 4.8 | 8.0 | 0.00 | 0.00 | 0.00 | 76 | 1014.5 |
| 20260905195122 | 32 | 343 | 4.8 | 9.7 | 0.00 | 0.00 | 0.00 | 74 | 1014.3 |
| 20260905194122 | 33 | 321 | 4.8 | 6.4 | 0.00 | 0.00 | 0.00 | 73 | 1014.3 |
| 20260905193122 | 32 | 344 | 4.8 | 9.7 | 0.00 | 0.00 | 0.00 | 78 | 1014.5 |
| 20260905192122 | 33 | 342 | 3.2 | 8.0 | 0.00 | 0.00 | 0.00 | 72 | 1014.4 |
| 20260905191121 | 32 | 320 | 4.8 | 8.0 | 0.00 | 0.00 | 0.00 | 77 | 1014.7 |
| 20260905190122 | 33 | 352 | 4.8 | 8.0 | 0.00 | 0.00 | 0.00 | 76 | 1014.6 |
| 20260905185122 | 32 | 335 | 4.8 | 8.0 | 0.00 | 0.00 | 0.00 | 74 | 1014.6 |
| 20260905184122 | 33 | 352 | 4.8 | 9.7 | 0.00 | 0.00 | 0.00 | 73 | 1014.8 |
| 20260905183122 | 33 | 354 | 6.4 | 9.7 | 0.00 | 0.00 | 0.00 | 71 | 1014.8 |
| 20260905182121 | 33 | 341 | 4.8 | 9.7 | 0.00 | 0.00 | 0.00 | 74 | 1014.8 |
| 20260905181122 | 34 | 327 | 4.8 | 8.0 | 0.00 | 0.00 | 0.00 | 72 | 1014.9 |
| 20260905180122 | 33 | 339 | 4.8 | 9.7 | 0.00 | 0.00 | 0.00 | 71 | 1014.9 |
| 20260905175122 | 33 | 324 | 4.8 | 11.3 | 0.00 | 0.00 | 0.00 | 71 | 1014.9 |
| 20260905174122 | 33 | 9 | 4.8 | 8.0 | 0.00 | 0.00 | 0.00 | 74 | 1015.1 |
| 20260905173122 | 33 | 328 | 4.8 | 8.0 | 0.00 | 0.00 | 0.00 | 75 | 1015.1 |
| 20260905172122 | 32 | 326 | 6.4 | 8.0 | 0.00 | 0.00 | 0.00 | 72 | 1015.2 |
| 20260905171122 | 33 | 318 | 4.8 | 8.0 | 0.00 | 0.00 | 0.00 | 74 | 1015.2 |
| 20260905170122 | 32 | 320 | 4.8 | 8.0 | 0.00 | 0.00 | 0.00 | 76 | 1015.3 |
| 20260905165121 | 32 | 334 | 4.8 | 8.0 | 0.00 | 0.00 | 0.00 | 75 | 1015.3 |
| 20260905164121 | 32 | 10 | 4.8 | 8.0 | 0.00 | 0.00 | 0.00 | 77 | 1015.4 |
| 20260905163122 | 32 | 336 | 6.4 | 9.7 | 0.00 | 0.00 | 0.00 | 76 | 1015.3 |
| 20260905162122 | 32 | 323 | 4.8 | 8.0 | 0.00 | 0.00 | 0.00 | 78 | 1015.5 |
| 20260905161122 | 32 | 346 | 4.8 | 8.0 | 0.00 | 0.00 | 0.00 | 78 | 1015.4 |
| 20260905160122 | 31 | 338 | 6.4 | 9.7 | 0.00 | 0.00 | 0.00 | 78 | 1015.4 |
| 20260905155122 | 32 | 2 | 6.4 | 9.7 | 0.00 | 0.00 | 0.00 | 79 | 1015.4 |
| 20260905154122 | 31 | 314 | 4.8 | 9.7 | 0.00 | 0.00 | 0.00 | 77 | 1015.3 |
| 20260905153122 | 31 | 333 | 4.8 | 8.0 | 0.00 | 0.00 | 0.00 | 78 | 1015.1 |
| 20260905152122 | 31 | 331 | 4.8 | 8.0 | 0.00 | 0.00 | 0.00 | 76 | 1015.3 |
| 20260905151122 | 31 | 337 | 6.4 | 9.7 | 0.00 | 0.00 | 0.00 | 77 | 1015.0 |
| 20260905150122 | 30 | 339 | 6.4 | 11.3 | 0.00 | 0.00 | 0.00 | 76 | 1015.0 |
| 20260905145122 | 30 | 341 | 6.4 | 9.7 | 0.00 | 0.00 | 0.00 | 77 | 1015.0 |
| 20260905144122 | 30 | 326 | 6.4 | 11.3 | 0.00 | 0.00 | 0.00 | 76 | 1014.9 |
| 20260905143122 | 30 | 329 | 4.8 | 8.0 | 0.00 | 0.00 | 0.00 | 76 | 1015.0 |
| 20260905142122 | 30 | 320 | 4.8 | 8.0 | 0.00 | 0.00 | 0.00 | 78 | 1014.7 |
| 20260905141143 | 30 | 315 | 3.2 | 6.4 | 0.00 | 0.00 | 0.00 | 77 | 1014.7 |
| 20260905140121 | 30 | 307 | 3.2 | 6.4 | 0.00 | 0.00 | 0.00 | 79 | 1014.6 |
| 20260905135122 | 30 | 330 | 1.6 | 4.8 | 0.00 | 0.00 | 0.00 | 79 | 1014.6 |
| 20260905134143 | 28 | 328 | 1.6 | 4.8 | 0.00 | 0.00 | 0.00 | 81 | 1014.6 |
| 20260905133121 | 28 | 10 | 1.6 | 6.4 | 0.00 | 0.00 | 0.00 | 85 | 1014.5 |
| 20260905132122 | 28 | 3 | 3.2 | 6.4 | 0.00 | 0.00 | 0.00 | 83 | 1014.7 |
| 20260905131122 | 28 | 51 | 1.6 | 4.8 | 0.00 | 0.00 | 0.00 | 86 | 1014.7 |
| 20260905130121 | 27 | 229 | 1.6 | 4.8 | 0.00 | 0.00 | 0.00 | 87 | 1014.3 |
| 20260905125122 | 27 | 242 | 3.2 | 6.4 | 0.00 | 0.00 | 0.00 | 90 | 1014.3 |
| 20260905124122 | 26 | 238 | 3.2 | 4.8 | 0.00 | 0.00 | 0.00 | 92 | 1014.3 |